TimeMST,TemperatureF,Dew PointF,Humidity,Sea Level PressureIn,VisibilityMPH,Wind Direction,Wind SpeedMPH,Gust SpeedMPH,PrecipitationIn,Events,Conditions,WindDirDegrees,DateUTC
12:15 AM,7.5,2.3,79,30.24,10.0,NNW,5.8,-,N/A,,Clear,340,2013-01-05 07:15:00
12:35 AM,5.4,0.9,82,30.24,10.0,NW,6.9,-,N/A,,Clear,320,2013-01-05 07:35:00
12:55 AM,6.4,2.3,83,30.24,10.0,WNW,5.8,-,N/A,,Clear,300,2013-01-05 07:55:00
1:15 AM,7.5,2.8,81,30.25,10.0,NNW,6.9,-,N/A,,Clear,340,2013-01-05 08:15:00
1:35 AM,7.2,2.3,80,30.26,10.0,WNW,5.8,-,N/A,,Clear,300,2013-01-05 08:35:00
1:55 AM,7.5,2.8,81,30.26,10.0,WNW,5.8,-,N/A,,Clear,300,2013-01-05 08:55:00
2:15 AM,6.6,1.9,81,30.26,10.0,NW,6.9,-,N/A,,Clear,310,2013-01-05 09:15:00
2:35 AM,5.5,1.4,83,30.26,10.0,NW,6.9,-,N/A,,Clear,320,2013-01-05 09:35:00
2:55 AM,4.5,0.5,84,30.26,10.0,NW,5.8,-,N/A,,Clear,310,2013-01-05 09:55:00
3:15 AM,5.0,1.0,84,30.27,10.0,NW,6.9,-,N/A,,Clear,310,2013-01-05 10:15:00
3:35 AM,4.5,0.3,83,30.27,10.0,NW,5.8,-,N/A,,Clear,310,2013-01-05 10:35:00
3:55 AM,3.6,-0.2,84,30.27,10.0,NW,5.8,-,N/A,,Clear,310,2013-01-05 10:55:00
4:15 AM,4.1,-0.0,83,30.27,10.0,WNW,3.5,-,N/A,,Clear,290,2013-01-05 11:15:00
4:55 AM,2.8,-0.6,86,30.27,10.0,NW,8.1,-,N/A,,Clear,310,2013-01-05 11:55:00
5:15 AM,3.6,-0.8,82,30.29,10.0,NW,6.9,-,N/A,,Clear,320,2013-01-05 12:15:00
5:35 AM,2.7,-1.5,83,30.29,10.0,WNW,8.1,-,N/A,,Clear,300,2013-01-05 12:35:00
5:55 AM,2.8,-1.5,82,30.30,10.0,NW,8.1,-,N/A,,Clear,310,2013-01-05 12:55:00
6:15 AM,0.3,-3.8,83,30.30,10.0,NNW,5.8,-,N/A,,Clear,330,2013-01-05 13:15:00
6:35 AM,-0.9,-4.7,84,30.32,10.0,NNW,5.8,-,N/A,,Clear,330,2013-01-05 13:35:00
6:55 AM,-2.2,-6.2,83,30.32,10.0,NW,5.8,-,N/A,,Clear,320,2013-01-05 13:55:00
7:15 AM,-1.5,-4.9,85,30.32,10.0,NW,3.5,-,N/A,,Clear,310,2013-01-05 14:15:00
7:35 AM,-0.6,-4.5,83,30.33,10.0,North,5.8,-,N/A,,Clear,350,2013-01-05 14:35:00
7:55 AM,0.3,-3.6,83,30.34,10.0,NW,4.6,-,N/A,,Clear,310,2013-01-05 14:55:00
8:15 AM,4.6,-0.2,80,30.35,10.0,Calm,Calm,-,N/A,,Clear,0,2013-01-05 15:15:00
8:55 AM,10.4,2.8,72,30.36,10.0,Calm,Calm,-,N/A,,Clear,0,2013-01-05 15:55:00
9:15 AM,13.3,4.1,67,30.36,10.0,Calm,Calm,-,N/A,,Clear,0,2013-01-05 16:15:00
9:55 AM,19.8,6.1,55,30.37,10.0,NNW,3.5,-,N/A,,Clear,340,2013-01-05 16:55:00
10:15 AM,22.6,7.2,52,30.37,10.0,NNW,4.6,-,N/A,,Clear,340,2013-01-05 17:15:00
10:35 AM,24.3,6.3,46,30.36,10.0,North,3.5,-,N/A,,Clear,350,2013-01-05 17:35:00
10:55 AM,27.3,7.2,43,30.35,10.0,NNW,4.6,-,N/A,,Clear,340,2013-01-05 17:55:00
11:15 AM,29.5,7.2,39,30.35,10.0,NW,5.8,-,N/A,,Clear,310,2013-01-05 18:15:00
11:35 AM,32.0,5.2,32,30.34,10.0,NNW,6.9,-,N/A,,Clear,330,2013-01-05 18:35:00
11:55 AM,34.0,4.8,29,30.32,10.0,NW,6.9,-,N/A,,Clear,320,2013-01-05 18:55:00
12:15 PM,36.3,4.3,26,30.32,10.0,NW,5.8,-,N/A,,Clear,310,2013-01-05 19:15:00
12:35 PM,38.7,2.8,22,30.30,10.0,North,6.9,-,N/A,,Clear,350,2013-01-05 19:35:00
12:55 PM,40.1,4.1,22,30.30,10.0,North,9.2,-,N/A,,Clear,350,2013-01-05 19:55:00
1:15 PM,41.4,4.3,22,30.29,10.0,NNW,6.9,-,N/A,,Clear,340,2013-01-05 20:15:00
1:35 PM,42.4,4.3,21,30.29,10.0,NNW,8.1,-,N/A,,Clear,340,2013-01-05 20:35:00
1:55 PM,42.8,4.5,21,30.28,10.0,NW,10.4,-,N/A,,Clear,310,2013-01-05 20:55:00
2:15 PM,43.0,4.5,20,30.28,10.0,NNW,9.2,-,N/A,,Clear,340,2013-01-05 21:15:00
2:35 PM,43.2,5.0,21,30.28,10.0,NNW,10.4,-,N/A,,Clear,340,2013-01-05 21:35:00
2:55 PM,43.2,6.1,22,30.28,10.0,NNW,9.2,-,N/A,,Clear,330,2013-01-05 21:55:00
3:15 PM,43.3,6.1,22,30.29,10.0,NNW,10.4,-,N/A,,Clear,330,2013-01-05 22:15:00
3:55 PM,43.5,5.9,21,30.29,10.0,NNW,9.2,-,N/A,,Clear,340,2013-01-05 22:55:00
4:15 PM,41.9,6.8,24,30.29,10.0,NW,8.1,-,N/A,,Clear,320,2013-01-05 23:15:00
4:35 PM,40.6,6.8,25,30.29,10.0,NNW,8.1,-,N/A,,Clear,330,2013-01-05 23:35:00
4:55 PM,37.9,5.0,25,30.30,10.0,WNW,4.6,-,N/A,,Clear,300,2013-01-05 23:55:00
5:15 PM,32.4,5.0,32,30.31,10.0,WNW,5.8,-,N/A,,Clear,300,2013-01-06 00:15:00
5:35 PM,30.0,4.6,34,30.32,10.0,WNW,5.8,-,N/A,,Clear,300,2013-01-06 00:35:00
5:55 PM,27.1,4.3,38,30.32,10.0,WNW,6.9,-,N/A,,Clear,300,2013-01-06 00:55:00
6:15 PM,26.2,4.6,40,30.32,10.0,NW,4.6,-,N/A,,Clear,320,2013-01-06 01:15:00
6:35 PM,21.9,4.5,47,30.32,10.0,WNW,4.6,-,N/A,,Clear,300,2013-01-06 01:35:00
6:55 PM,21.2,5.9,52,30.33,10.0,Calm,Calm,-,N/A,,Clear,0,2013-01-06 01:55:00
7:15 PM,18.7,5.5,57,30.33,10.0,WNW,3.5,-,N/A,,Clear,290,2013-01-06 02:15:00
7:35 PM,18.5,5.0,56,30.34,10.0,NW,6.9,-,N/A,,Clear,310,2013-01-06 02:35:00
7:55 PM,20.1,7.5,58,30.34,10.0,NW,9.2,-,N/A,,Clear,310,2013-01-06 02:55:00
8:15 PM,16.7,5.7,62,30.34,10.0,NNW,6.9,-,N/A,,Clear,330,2013-01-06 03:15:00
8:35 PM,14.0,4.8,67,30.35,10.0,NW,5.8,-,N/A,,Clear,320,2013-01-06 03:35:00
8:55 PM,16.5,6.8,66,30.35,10.0,NW,8.1,-,N/A,,Clear,320,2013-01-06 03:55:00
9:15 PM,15.6,6.6,68,30.36,10.0,WNW,8.1,-,N/A,,Clear,300,2013-01-06 04:15:00
9:35 PM,12.9,4.5,69,30.37,10.0,NNW,4.6,-,N/A,,Clear,330,2013-01-06 04:35:00
9:55 PM,11.3,3.9,72,30.37,10.0,NNW,4.6,-,N/A,,Clear,340,2013-01-06 04:55:00
10:15 PM,9.5,2.8,74,30.37,10.0,NW,6.9,-,N/A,,Clear,310,2013-01-06 05:15:00
10:35 PM,13.3,5.9,72,30.37,10.0,WNW,10.4,-,N/A,,Clear,300,2013-01-06 05:35:00
10:55 PM,13.8,5.2,69,30.37,10.0,NW,9.2,-,N/A,,Clear,310,2013-01-06 05:55:00
11:15 PM,13.1,5.2,71,30.37,10.0,NW,6.9,-,N/A,,Clear,310,2013-01-06 06:15:00
11:35 PM,10.2,3.9,76,30.37,10.0,NNW,5.8,-,N/A,,Clear,340,2013-01-06 06:35:00
11:55 PM,7.3,2.1,79,30.36,10.0,NW,4.6,-,N/A,,Clear,320,2013-01-06 06:55:00